EN

Hourly Weather Ladek

Today, 1 August, Sunday

Time Temperature Precipitation Wind Pressure Humidity
00:00 +16°C° 0 mm 3 mps 739 mmHg 81%
01:00 +14°C° 0 mm 3 mps 739 mmHg 79%
02:00 +14°C° 0 mm 3 mps 739 mmHg 80%
03:00 +13°C° 0 mm 3 mps 739 mmHg 80%
04:00 +13°C° 0 mm 4 mps 739 mmHg 81%
05:00 +14°C° 0 mm 4 mps 740 mmHg 79%
06:00 +15°C° 0 mm 4 mps 740 mmHg 77%
07:00 +17°C° 0 mm 4 mps 740 mmHg 75%
08:00 +18°C° 0 mm 4 mps 740 mmHg 70%
09:00 +20°C° 0 mm 4 mps 740 mmHg 64%
10:00 +21°C° 0 mm 4 mps 741 mmHg 59%
11:00 +21°C° 0 mm 4 mps 741 mmHg 60%
12:00 +21°C° 0 mm 3 mps 741 mmHg 61%
13:00 +21°C° 0 mm 3 mps 741 mmHg 62%
14:00 +20°C° 0.5 mm 3 mps 741 mmHg 70%
15:00 +18°C° 0.5 mm 4 mps 741 mmHg 79%
16:00 +17°C° 0.5 mm 4 mps 741 mmHg 88%
17:00 +17°C° 0 mm 3 mps 740 mmHg 88%
18:00 +16°C° 0 mm 3 mps 740 mmHg 89%
19:00 +16°C° 0 mm 2 mps 740 mmHg 89%
20:00 +15°C° 0 mm 2 mps 740 mmHg 90%
21:00 +15°C° 0 mm 2 mps 740 mmHg 91%
22:00 +14°C° 0 mm 2 mps 740 mmHg 92%
23:00 +14°C° 0 mm 2 mps 740 mmHg 93%

Tomorrow, 2 August, Monday

Time Temperature Precipitation Wind Pressure Humidity
00:00 +14°C° 0 mm 2 mps 740 mmHg 93%
01:00 +14°C° 0 mm 2 mps 740 mmHg 94%
02:00 +14°C° 0 mm 2 mps 740 mmHg 94%
03:00 +14°C° 0 mm 2 mps 739 mmHg 95%
04:00 +14°C° 0 mm 2 mps 739 mmHg 96%
05:00 +15°C° 0 mm 2 mps 739 mmHg 91%
06:00 +16°C° 0 mm 2 mps 740 mmHg 87%
07:00 +17°C° 0 mm 2 mps 740 mmHg 83%
08:00 +18°C° 0.3 mm 3 mps 740 mmHg 78%
09:00 +19°C° 0.3 mm 4 mps 740 mmHg 73%
10:00 +20°C° 0.3 mm 5 mps 740 mmHg 68%
11:00 +20°C° 0.5 mm 5 mps 740 mmHg 69%
12:00 +20°C° 0.5 mm 5 mps 740 mmHg 71%
13:00 +20°C° 0.5 mm 5 mps 740 mmHg 72%
14:00 +20°C° 0.3 mm 4 mps 741 mmHg 70%
15:00 +20°C° 0.3 mm 4 mps 741 mmHg 68%
16:00 +20°C° 0.3 mm 3 mps 741 mmHg 67%
17:00 +19°C° 0 mm 3 mps 741 mmHg 70%
18:00 +18°C° 0 mm 3 mps 741 mmHg 74%
19:00 +17°C° 0 mm 2 mps 741 mmHg 77%
20:00 +16°C° 0 mm 2 mps 742 mmHg 78%
21:00 +16°C° 0 mm 2 mps 742 mmHg 78%
22:00 +16°C° 0 mm 1 mps 742 mmHg 79%
23:00 +15°C° 0 mm 2 mps 742 mmHg 80%

Day after tomorrow, 3 August, Tuesday

Time Temperature Precipitation Wind Pressure Humidity
00:00 +13°C° 0 mm 3 mps 742 mmHg 82%
01:00 +12°C° 0 mm 3 mps 743 mmHg 83%
02:00 +12°C° 0 mm 4 mps 743 mmHg 83%
03:00 +12°C° 0 mm 4 mps 743 mmHg 83%
04:00 +11°C° 0 mm 4 mps 743 mmHg 83%
05:00 +13°C° 0 mm 4 mps 743 mmHg 80%
06:00 +14°C° 0 mm 5 mps 743 mmHg 76%
07:00 +16°C° 0 mm 5 mps 744 mmHg 73%
08:00 +17°C° 0.1 mm 5 mps 744 mmHg 69%
09:00 +19°C° 0.1 mm 5 mps 744 mmHg 65%
10:00 +21°C° 0.1 mm 5 mps 744 mmHg 61%
11:00 +21°C° 0.3 mm 4 mps 744 mmHg 60%
12:00 +21°C° 0.3 mm 4 mps 745 mmHg 60%
13:00 +21°C° 0.3 mm 3 mps 745 mmHg 59%
14:00 +21°C° 0.1 mm 3 mps 745 mmHg 61%
15:00 +20°C° 0.1 mm 2 mps 745 mmHg 63%
16:00 +20°C° 0.1 mm 2 mps 745 mmHg 65%
17:00 +20°C° 0 mm 1 mps 745 mmHg 67%
18:00 +20°C° 0 mm 1 mps 745 mmHg 70%
19:00 +19°C° 0 mm 1 mps 745 mmHg 72%
20:00 +18°C° 0 mm 1 mps 745 mmHg 71%
21:00 +18°C° 0 mm 1 mps 745 mmHg 71%
22:00 +16°C° 0 mm 2 mps 745 mmHg 71%
23:00 +15°C° 0 mm 1 mps 745 mmHg 74%

4 August, Wednesday

Time Temperature Precipitation Wind Pressure Humidity
00:00 +15°C° 0 mm 1 mps 745 mmHg 77%
01:00 +14°C° 0 mm 1 mps 745 mmHg 79%
02:00 +14°C° 0 mm 1 mps 745 mmHg 79%
03:00 +13°C° 0 mm 1 mps 745 mmHg 79%
04:00 +13°C° 0 mm 2 mps 745 mmHg 79%
05:00 +15°C° 0 mm 2 mps 745 mmHg 76%
06:00 +16°C° 0 mm 2 mps 745 mmHg 73%
07:00 +17°C° 0 mm 2 mps 746 mmHg 70%
08:00 +18°C° 0 mm 2 mps 746 mmHg 66%
09:00 +19°C° 0 mm 2 mps 746 mmHg 63%
10:00 +20°C° 0 mm 2 mps 746 mmHg 60%
11:00 +22°C° 0 mm 1 mps 746 mmHg 60%
12:00 +22°C° 0 mm 1 mps 745 mmHg 60%
13:00 +22°C° 0 mm 1 mps 745 mmHg 60%
14:00 +21°C° 0.2 mm 2 mps 745 mmHg 63%
15:00 +21°C° 0.2 mm 2 mps 745 mmHg 67%
16:00 +20°C° 0.2 mm 3 mps 745 mmHg 71%
17:00 +19°C° 1.2 mm 3 mps 745 mmHg 79%
18:00 +18°C° 1.2 mm 3 mps 745 mmHg 86%
19:00 +17°C° 1.2 mm 3 mps 745 mmHg 94%
20:00 +17°C° 0 mm 3 mps 745 mmHg 94%
21:00 +17°C° 0 mm 2 mps 745 mmHg 94%
22:00 +16°C° 0 mm 2 mps 745 mmHg 94%
23:00 +16°C° 0 mm 2 mps 744 mmHg 94%

5 August, Thursday

Time Temperature Precipitation Wind Pressure Humidity
00:00 +16°C° 0 mm 2 mps 744 mmHg 95%
01:00 +16°C° 0 mm 1 mps 744 mmHg 95%
02:00 +15°C° 0 mm 1 mps 744 mmHg 96%
03:00 +15°C° 0 mm 2 mps 744 mmHg 96%
04:00 +15°C° 0 mm 2 mps 743 mmHg 97%
05:00 +16°C° 0 mm 2 mps 743 mmHg 94%
06:00 +17°C° 0 mm 2 mps 743 mmHg 91%
07:00 +18°C° 0 mm 2 mps 743 mmHg 89%
08:00 +19°C° 0.2 mm 2 mps 743 mmHg 85%
09:00 +19°C° 0.2 mm 2 mps 743 mmHg 82%
10:00 +20°C° 0.2 mm 2 mps 743 mmHg 78%
11:00 +20°C° 1.1 mm 2 mps 742 mmHg 81%
12:00 +20°C° 1.1 mm 1 mps 742 mmHg 84%
13:00 +20°C° 1.1 mm 1 mps 742 mmHg 88%
14:00 +19°C° 1.1 mm 1 mps 742 mmHg 90%
15:00 +19°C° 1.1 mm 1 mps 741 mmHg 92%
16:00 +18°C° 1.1 mm 1 mps 741 mmHg 94%
17:00 +18°C° 0.1 mm 1 mps 741 mmHg 94%
18:00 +18°C° 0.1 mm 1 mps 741 mmHg 94%
19:00 +18°C° 0.1 mm 1 mps 740 mmHg 94%
20:00 +16°C° 0 mm 1 mps 740 mmHg 95%
21:00 +16°C° 0 mm 1 mps 740 mmHg 95%
22:00 +16°C° 0 mm 2 mps 739 mmHg 95%
23:00 +16°C° 0 mm 2 mps 739 mmHg 95%

6 August, Friday

Time Temperature Precipitation Wind Pressure Humidity
00:00 +16°C° 0 mm 2 mps 739 mmHg 95%
01:00 +15°C° 0 mm 2 mps 739 mmHg 95%
02:00 +15°C° 0 mm 2 mps 738 mmHg 95%
03:00 +15°C° 0 mm 2 mps 738 mmHg 95%
04:00 +15°C° 0 mm 2 mps 738 mmHg 95%
05:00 +16°C° 0 mm 2 mps 738 mmHg 94%
06:00 +16°C° 0 mm 2 mps 738 mmHg 93%
07:00 +17°C° 0 mm 2 mps 738 mmHg 92%
08:00 +18°C° 0.1 mm 2 mps 738 mmHg 88%
09:00 +19°C° 0.1 mm 2 mps 738 mmHg 83%
10:00 +20°C° 0.1 mm 3 mps 738 mmHg 79%
11:00 +21°C° 0.8 mm 3 mps 738 mmHg 74%
12:00 +22°C° 0.8 mm 3 mps 738 mmHg 69%
13:00 +23°C° 0.8 mm 4 mps 738 mmHg 64%
14:00 +22°C° 0.4 mm 4 mps 738 mmHg 66%
15:00 +22°C° 0.4 mm 4 mps 738 mmHg 67%
16:00 +21°C° 0.4 mm 4 mps 737 mmHg 68%
17:00 +20°C° 0.2 mm 3 mps 738 mmHg 71%
18:00 +20°C° 0.2 mm 3 mps 738 mmHg 74%
19:00 +19°C° 0.2 mm 2 mps 738 mmHg 77%
20:00 +18°C° 0 mm 2 mps 738 mmHg 78%
21:00 +17°C° 0 mm 2 mps 738 mmHg 79%
22:00 +17°C° 0 mm 2 mps 738 mmHg 80%
23:00 +17°C° 0 mm 2 mps 738 mmHg 80%
Show more